W9KHP-1 Weather Reports


Display with metric or nautical units.
time (UTC)temp
F
wind
direction
speed
MPH
gust
MPH
rain 1hr
in
rain 24hr
in
rain mn
in
humidity
%
barometer
mb
20260906102344 75 9 0.0 0.0 0.00 0.00 0.00 97 1015.1
20260906101840 75 343 0.0 0.0 0.00 0.00 0.00 98 1015.0
20260906101335 75 12 0.0 0.0 0.00 0.00 0.00 98 1015.0
20260906100831 75 352 0.0 1.0 0.00 0.00 0.00 98 1014.9
20260906100329 75 347 0.0 0.0 0.00 0.00 0.00 97 1014.9
20260906095825 75 342 0.0 0.0 0.00 0.00 0.00 97 1014.9
20260906095320 75 345 0.0 0.0 0.00 0.00 0.00 97 1014.8
20260906094819 75 346 0.0 0.0 0.00 0.00 0.00 97 1014.7
20260906094315 75 339 0.0 0.0 0.00 0.00 0.00 97 1014.7
20260906093811 75 340 0.0 0.0 0.00 0.00 0.00 96 1014.6
20260906093307 75 340 0.0 0.0 0.00 0.00 0.00 96 1014.8
20260906092756 75 341 0.0 0.0 0.00 0.00 0.00 96 1014.7
20260906092256 75 325 0.0 0.0 0.00 0.00 0.00 95 1014.6
20260906091752 75 353 0.0 0.0 0.00 0.00 0.00 95 1014.5
20260906091248 75 347 0.0 0.0 0.00 0.00 0.00 95 1014.7
20260906090744 75 342 0.0 0.0 0.00 0.00 0.00 94 1014.4
20260906090242 76 349 0.0 0.0 0.00 0.00 0.00 93 1014.5
20260906085736 76 4 0.0 0.0 0.00 0.00 0.00 93 1014.3
20260906085235 75 2 0.0 0.0 0.00 0.00 0.00 94 1014.5
20260906084730 75 359 0.0 0.0 0.00 0.00 0.00 95 1014.4
20260906084224 75 343 0.0 0.0 0.00 0.00 0.00 94 1014.6
20260906083719 75 339 0.0 0.0 0.00 0.00 0.00 94 1014.4
20260906083215 75 338 0.0 0.0 0.00 0.00 0.00 95 1014.5
20260906082710 75 344 0.0 0.0 0.00 0.00 0.00 95 1014.6
20260906082205 75 351 0.0 0.0 0.00 0.00 0.00 95 1014.5
20260906081701 74 351 0.0 0.0 0.00 0.00 0.00 95 1014.6
20260906081150 74 352 0.0 0.0 0.00 0.00 0.00 96 1014.4
20260906080647 74 352 0.0 0.0 0.00 0.00 0.00 96 1014.4
20260906080142 74 352 0.0 0.0 0.00 0.00 0.00 95 1014.4
20260906075636 74 352 0.0 0.0 0.00 0.00 0.00 96 1014.2
20260906075131 74 352 0.0 0.0 0.00 0.00 0.00 96 1014.3
20260906074627 74 352 0.0 0.0 0.00 0.00 0.00 97 1014.3
20260906074125 74 352 0.0 0.0 0.00 0.00 0.00 97 1014.2
20260906073620 74 352 0.0 0.0 0.00 0.00 0.00 97 1014.5
20260906073116 74 352 0.0 0.0 0.00 0.00 0.00 96 1014.5
20260906072610 74 352 0.0 0.0 0.00 0.00 0.00 96 1014.4
20260906072106 74 352 0.0 0.0 0.00 0.00 0.00 95 1014.5
20260906071602 75 352 0.0 0.0 0.00 0.00 0.00 95 1014.2
20260906071056 75 352 0.0 0.0 0.00 0.00 0.00 95 1014.3
20260906070553 75 352 0.0 0.0 0.00 0.00 0.00 95 1014.5
20260906070049 75 352 0.0 0.0 0.00 0.00 0.00 95 1014.5
20260906065548 75 352 0.0 0.0 0.00 0.00 0.00 95 1014.4
20260906065044 76 353 0.0 0.0 0.00 0.00 0.00 94 1014.6
20260906064540 76 353 0.0 0.0 0.00 0.00 0.00 93 1014.6
20260906064035 76 352 0.0 0.0 0.00 0.00 0.00 93 1014.8
20260906063530 76 357 0.0 0.0 0.00 0.00 0.00 94 1014.5
20260906063026 76 345 0.0 0.0 0.00 0.00 0.00 94 1014.7
20260906062521 76 345 0.0 0.0 0.00 0.00 0.00 94 1014.8
20260906062010 76 342 0.0 0.0 0.00 0.00 0.00 94 1014.8
20260906061505 76 352 0.0 0.0 0.00 0.00 0.00 94 1014.7
20260906061000 76 343 0.0 0.0 0.00 0.00 0.00 94 1014.9
20260906060456 76 356 0.0 0.0 0.00 0.00 0.00 94 1014.8
20260906055953 76 343 1.0 3.0 0.00 0.00 0.00 95 1014.8
20260906055449 76 338 0.0 0.0 0.00 0.00 0.00 94 1014.6
20260906054944 76 338 0.0 0.0 0.00 0.00 0.00 94 1014.6
20260906054444 76 338 0.0 0.0 0.00 0.00 0.00 94 1014.6
20260906053939 76 337 0.0 0.0 0.00 0.00 0.00 94 1014.7
20260906053436 76 337 0.0 0.0 0.00 0.00 0.00 93 1015.0
20260906052931 76 350 0.0 0.0 0.00 0.00 0.00 93 1014.8
20260906052427 76 316 0.0 0.0 0.00 0.00 0.00 92 1014.9
20260906051923 77 315 0.0 0.0 0.00 0.00 0.00 92 1015.0
20260906051418 77 338 0.0 0.0 0.00 0.00 0.00 91 1014.9
20260906050914 77 338 0.0 0.0 0.00 0.00 0.00 91 1014.8
20260906050408 77 338 0.0 0.0 0.00 0.00 0.00 91 1015.0
20260906045908 77 337 0.0 0.0 0.00 0.00 0.00 91 1014.9
20260906045406 77 316 0.0 0.0 0.00 0.00 0.00 91 1014.9
20260906044903 77 352 0.0 0.0 0.00 0.00 0.00 91 1015.0
20260906044403 77 348 0.0 0.0 0.00 0.00 0.00 93 1014.8
20260906043858 77 358 0.0 0.0 0.00 0.00 0.00 91 1014.8
20260906043354 77 348 0.0 0.0 0.00 0.00 0.00 92 1014.9
20260906042849 77 348 0.0 0.0 0.00 0.00 0.00 92 1014.8
20260906042348 76 359 0.0 0.0 0.00 0.00 0.00 93 1014.6
20260906041843 77 359 0.0 0.0 0.00 0.00 0.00 94 1014.6
20260906041339 77 359 0.0 0.0 0.00 0.00 0.00 92 1014.5
20260906040839 77 359 0.0 0.0 0.00 0.00 0.00 91 1014.3
20260906040335 77 359 0.0 0.0 0.00 0.00 0.00 90 1014.4
20260906035830 78 359 0.0 0.0 0.00 0.00 0.00 89 1014.3
20260906035325 78 359 0.0 0.0 0.00 0.00 0.00 88 1014.1
20260906034821 78 359 0.0 0.0 0.00 0.00 0.00 88 1014.2
20260906034321 77 359 0.0 0.0 0.00 0.00 0.00 88 1014.2
20260906033816 78 359 0.0 0.0 0.00 0.00 0.00 89 1014.2
20260906033315 78 359 0.0 0.0 0.00 0.00 0.00 90 1014.2
20260906032812 78 359 0.0 0.0 0.00 0.00 0.00 88 1014.2
20260906032308 78 359 0.0 0.0 0.00 0.00 0.00 88 1014.0
20260906031803 78 359 0.0 0.0 0.00 0.00 0.00 87 1014.3
20260906031258 78 359 0.0 0.0 0.00 0.00 0.00 88 1014.2
20260906030758 78 0 0.0 0.0 0.00 0.00 0.00 87 1014.2
20260906030253 78 0 0.0 0.0 0.00 0.00 0.00 87 1014.3
20260906025753 78 0 0.0 0.0 0.00 0.00 0.00 89 1014.1
20260906025247 78 0 0.0 0.0 0.00 0.00 0.00 89 1013.8
20260906024746 78 0 0.0 0.0 0.00 0.00 0.00 87 1013.8
20260906024246 79 0 0.0 0.0 0.00 0.00 0.00 87 1013.8
20260906023742 79 0 0.0 0.0 0.00 0.00 0.00 87 1013.7
20260906023237 79 0 0.0 0.0 0.00 0.00 0.00 87 1013.6
20260906022732 79 0 0.0 0.0 0.00 0.00 0.00 86 1013.7
20260906022227 80 0 0.0 0.0 0.00 0.00 0.00 87 1013.5
20260906021724 80 0 0.0 0.0 0.00 0.00 0.00 86 1013.3
20260906021222 80 0 0.0 0.0 0.00 0.00 0.00 84 1013.3
20260906020717 81 0 0.0 0.0 0.00 0.00 0.00 84 1013.3
20260906020211 81 0 0.0 0.0 0.00 0.00 0.00 82 1013.3
20260906015707 81 0 0.0 0.0 0.00 0.00 0.00 80 1013.1
20260906015205 82 0 0.0 0.0 0.00 0.00 0.00 80 1013.0
20260906014659 81 0 0.0 0.0 0.00 0.00 0.00 82 1013.4
20260906014155 81 18 0.0 0.0 0.00 0.00 0.00 82 1013.1
20260906013650 82 352 0.0 0.0 0.00 0.00 0.00 84 1013.2
20260906013146 82 351 0.0 0.0 0.00 0.00 0.00 79 1013.4
20260906012645 82 349 0.0 0.0 0.00 0.00 0.00 85 1013.3
20260906012140 82 337 0.0 0.0 0.00 0.00 0.00 87 1013.3
20260906011636 82 304 0.0 0.0 0.00 0.00 0.00 85 1013.3
20260906011131 82 341 0.0 0.0 0.00 0.00 0.00 87 1013.2
20260906010626 82 334 0.0 0.0 0.00 0.00 0.00 85 1013.2
20260906010122 82 353 0.0 0.0 0.00 0.00 0.00 85 1013.1
20260906005616 83 339 0.0 0.0 0.00 0.00 0.00 84 1013.0
20260906005115 83 339 0.0 0.0 0.00 0.00 0.00 81 1012.9
20260906004614 84 331 0.0 0.0 0.00 0.00 0.00 80 1012.8
20260906004109 84 340 0.0 0.0 0.00 0.00 0.00 79 1013.0
20260906003605 84 344 0.0 2.0 0.00 0.00 0.00 79 1012.8
20260906003100 84 340 0.0 0.0 0.00 0.00 0.00 80 1012.6
20260906002555 85 330 0.0 0.0 0.00 0.00 0.00 80 1012.4
20260906002049 85 290 0.0 0.0 0.00 0.00 0.00 79 1012.7
20260906001544 86 267 0.0 0.0 0.00 0.00 0.00 76 1012.6
20260906001039 86 347 0.0 0.0 0.00 0.00 0.00 75 1012.7
20260906000535 87 341 0.0 0.0 0.00 0.00 0.00 73 1012.8
20260906000030 87 330 0.0 0.0 0.00 0.00 0.00 73 1012.9
20260905235523 86 307 0.0 0.0 0.00 0.00 0.00 74 1012.9
20260905235019 86 11 0.0 0.0 0.00 0.00 0.00 76 1013.1
20260905234515 87 345 0.0 0.0 0.00 0.00 0.00 77 1013.0
20260905234009 87 345 0.0 0.0 0.00 0.00 0.00 76 1013.0
20260905233504 87 345 0.0 0.0 0.00 0.00 0.00 76 1012.8
20260905233004 87 345 0.0 0.0 0.00 0.00 0.00 76 1012.9
20260905232459 87 345 0.0 0.0 0.00 0.00 0.00 75 1012.8
20260905231955 87 345 0.0 0.0 0.00 0.00 0.00 74 1012.7
20260905231450 88 345 0.0 0.0 0.00 0.00 0.00 74 1012.6
20260905230947 89 345 0.0 0.0 0.00 0.00 0.00 73 1012.7
20260905230445 89 345 0.0 0.0 0.00 0.00 0.00 74 1012.6
20260905225943 89 345 0.0 0.0 0.00 0.00 0.00 73 1012.6
20260905225438 89 345 0.0 0.0 0.00 0.00 0.00 72 1012.5
20260905224933 89 345 0.0 0.0 0.00 0.00 0.00 72 1012.4
20260905224428 89 345 0.0 0.0 0.00 0.00 0.00 70 1012.3
20260905223922 88 345 0.0 0.0 0.00 0.00 0.00 70 1012.3
20260905223420 89 340 0.0 0.0 0.00 0.00 0.00 74 1012.1
20260905222915 89 265 0.0 0.0 0.00 0.00 0.00 70 1012.1
20260905222414 90 341 0.0 0.0 0.00 0.00 0.00 73 1012.1
20260905221910 91 343 0.0 0.0 0.00 0.00 0.00 66 1012.1
20260905221407 90 10 0.0 0.0 0.00 0.00 0.00 63 1012.2
20260905220903 90 339 0.0 0.0 0.00 0.00 0.00 68 1012.3
20260905220358 92 311 0.0 0.0 0.00 0.00 0.00 71 1012.4
20260905215857 93 348 0.0 0.0 0.00 0.00 0.00 67 1012.3
20260905215353 94 348 0.0 0.0 0.00 0.00 0.00 66 1012.1
20260905214850 94 348 0.0 0.0 0.00 0.00 0.00 63 1012.0
20260905214345 95 349 0.0 0.0 0.00 0.00 0.00 62 1012.0
20260905213839 97 335 0.0 0.0 0.00 0.00 0.00 56 1012.1
20260905213336 99 339 0.0 0.0 0.00 0.00 0.00 56 1011.8
20260905212835 99 338 0.0 0.0 0.00 0.00 0.00 57 1011.9
20260905212330 98 339 0.0 0.0 0.00 0.00 0.00 54 1012.0
20260905211825 98 8 0.0 0.0 0.00 0.00 0.00 63 1012.2
20260905211320 99 347 0.0 0.0 0.00 0.00 0.00 53 1012.1
20260905210817 100 337 0.0 0.0 0.00 0.00 0.00 50 1012.1
20260905210316 100 324 0.0 0.0 0.00 0.00 0.00 48 1012.2
20260905205815 100 334 0.0 1.0 0.00 0.00 0.00 47 1012.4
20260905205310 101 303 0.0 0.0 0.00 0.00 0.00 49 1012.4
20260905204809 100 319 0.0 2.0 0.00 0.00 0.00 47 1012.6
20260905204306 100 331 1.0 3.0 0.00 0.00 0.00 56 1012.5
20260905203804 101 335 0.0 1.0 0.00 0.00 0.00 47 1012.5
20260905203259 102 329 2.0 2.0 0.00 0.00 0.00 44 1012.6
20260905202750 101 295 0.0 1.0 0.00 0.00 0.00 48 1012.9
20260905202244 102 57 1.0 3.0 0.00 0.00 0.00 46 1012.8
20260905201740 101 216 4.0 4.0 0.00 0.00 0.00 46 1012.5
20260905201235 102 201 5.0 7.0 0.00 0.00 0.00 46 1012.6
20260905200730 103 344 0.0 2.0 0.00 0.00 0.00 49 1012.7
20260905200226 102 329 1.0 6.0 0.00 0.00 0.00 49 1013.0
20260905195724 102 319 1.0 1.0 0.00 0.00 0.00 52 1013.2
20260905195218 102 330 0.0 1.0 0.00 0.00 0.00 46 1013.0
20260905194714 102 335 0.0 4.0 0.00 0.00 0.00 47 1013.1
20260905194214 102 284 0.0 1.0 0.00 0.00 0.00 49 1013.2
20260905193708 103 10 1.0 2.0 0.00 0.00 0.00 50 1013.3
20260905193203 102 298 1.0 1.0 0.00 0.00 0.00 48 1013.4
20260905192659 100 203 2.0 3.0 0.00 0.00 0.00 49 1013.4
20260905192155 102 188 2.0 3.0 0.00 0.00 0.00 48 1013.7
20260905191654 101 337 0.0 0.0 0.00 0.00 0.00 51 1013.9
20260905191152 100 268 1.0 2.0 0.00 0.00 0.00 51 1013.8
20260905190651 101 308 1.0 2.0 0.00 0.00 0.00 50 1013.8
20260905190150 100 294 0.0 2.0 0.00 0.00 0.00 50 1013.9
20260905185649 100 337 0.0 0.0 0.00 0.00 0.00 50 1014.0
20260905185144 102 39 2.0 2.0 0.00 0.00 0.00 47 1014.0
20260905184643 102 323 2.0 2.0 0.00 0.00 0.00 49 1014.0
20260905184142 101 341 0.0 0.0 0.00 0.00 0.00 50 1014.1
20260905183641 101 328 0.0 4.0 0.00 0.00 0.00 52 1014.2
20260905183137 99 217 1.0 3.0 0.00 0.00 0.00 51 1014.2
20260905182636 100 326 1.0 2.0 0.00 0.00 0.00 52 1014.2
20260905182131 100 331 0.0 0.0 0.00 0.00 0.00 52 1014.5
20260905181626 101 138 1.0 2.0 0.00 0.00 0.00 52 1014.5
20260905181125 101 164 1.0 2.0 0.00 0.00 0.00 54 1014.5
20260905180620 100 108 0.0 2.0 0.00 0.00 0.00 55 1014.5
20260905180116 98 283 3.0 4.0 0.00 0.00 0.00 56 1014.5
20260905175615 99 120 2.0 3.0 0.00 0.00 0.00 53 1014.8
20260905175110 101 156 0.0 2.0 0.00 0.00 0.00 51 1014.7
20260905174606 98 316 0.0 0.0 0.00 0.00 0.00 56 1015.0
20260905174101 99 329 0.0 0.0 0.00 0.00 0.00 57 1014.9
20260905173557 99 317 0.0 0.0 0.00 0.00 0.00 57 1015.1
20260905173053 97 326 0.0 1.0 0.00 0.00 0.00 54 1015.1
20260905172551 99 0 2.0 2.0 0.00 0.00 0.00 58 1015.1
20260905172047 100 345 0.0 2.0 0.00 0.00 0.00 55 1015.1
20260905171543 99 317 0.0 1.0 0.00 0.00 0.00 57 1015.2
20260905171039 98 333 0.0 2.0 0.00 0.00 0.00 60 1015.3
20260905170535 99 214 2.0 4.0 0.00 0.00 0.00 58 1015.4
20260905170030 97 337 0.0 2.0 0.00 0.00 0.00 61 1015.5
20260905165525 97 327 0.0 2.0 0.00 0.00 0.00 61 1015.5
20260905165020 99 316 1.0 1.0 0.00 0.00 0.00 59 1015.6
20260905164519 97 338 1.0 3.0 0.00 0.00 0.00 58 1015.5
20260905164014 97 150 3.0 4.0 0.00 0.00 0.00 61 1015.8
20260905163510 96 40 1.0 2.0 0.00 0.00 0.00 62 1015.8
20260905163006 97 311 0.0 0.0 0.00 0.00 0.00 63 1016.2
20260905162501 97 334 0.0 1.0 0.00 0.00 0.00 61 1016.1
20260905161957 95 353 0.0 1.0 0.00 0.00 0.00 62 1016.3
20260905161456 96 338 1.0 2.0 0.00 0.00 0.00 62 1016.2
20260905160954 94 336 0.0 1.0 0.00 0.00 0.00 66 1016.4
20260905160448 94 333 0.0 1.0 0.00 0.00 0.00 65 1016.3
20260905155947 95 164 2.0 3.0 0.00 0.00 0.00 63 1016.3
20260905155442 94 313 0.0 1.0 0.00 0.00 0.00 67 1016.2
20260905154941 93 284 2.0 2.0 0.00 0.00 0.00 67 1016.3
20260905154436 91 294 1.0 1.0 0.00 0.00 0.00 69 1016.3
20260905153932 92 8 0.0 0.0 0.00 0.00 0.00 72 1016.3
20260905153428 90 326 0.0 0.0 0.00 0.00 0.00 76 1016.3
20260905152927 89 186 1.0 2.0 0.00 0.00 0.00 74 1016.4
20260905152427 89 131 0.0 2.0 0.00 0.00 0.00 75 1016.2
20260905151922 88 4 0.0 0.0 0.00 0.00 0.00 77 1016.4
20260905151413 89 7 0.0 0.0 0.00 0.00 0.00 78 1016.4
20260905150912 89 339 0.0 0.0 0.00 0.00 0.00 75 1016.4
20260905150407 89 321 2.0 2.0 0.00 0.00 0.00 75 1016.4
20260905145903 88 336 0.0 0.0 0.00 0.00 0.00 78 1016.3
20260905145358 87 187 0.0 0.0 0.00 0.00 0.00 80 1016.3
20260905144857 87 343 0.0 0.0 0.00 0.00 0.00 79 1016.4
20260905144353 86 346 0.0 0.0 0.00 0.00 0.00 79 1016.4
20260905143851 86 347 0.0 0.0 0.00 0.00 0.00 80 1016.4
20260905143346 86 318 0.0 0.0 0.00 0.00 0.00 79 1016.6
20260905142840 85 341 0.0 2.0 0.00 0.00 0.00 79 1016.4
20260905142338 85 355 0.0 0.0 0.00 0.00 0.00 82 1016.4
20260905141835 84 137 0.0 0.0 0.00 0.00 0.00 81 1016.5
20260905141330 84 150 0.0 2.0 0.00 0.00 0.00 81 1016.4
20260905140826 84 302 0.0 2.0 0.00 0.00 0.00 83 1016.6
20260905140325 84 178 1.0 1.0 0.00 0.00 0.00 83 1016.7
20260905135824 83 225 1.0 2.0 0.00 0.00 0.00 84 1017.0
20260905135320 83 263 0.0 2.0 0.00 0.00 0.00 85 1017.0
20260905134816 82 336 0.0 0.0 0.00 0.00 0.00 86 1017.1
20260905134314 82 349 0.0 0.0 0.00 0.00 0.00 88 1016.8
20260905133808 82 353 0.0 0.0 0.00 0.00 0.00 89 1016.8
20260905133304 82 353 0.0 0.0 0.00 0.00 0.00 87 1016.8
20260905132803 81 358 0.0 0.0 0.00 0.00 0.00 88 1017.0
20260905132258 81 8 0.0 0.0 0.00 0.00 0.00 90 1016.8
20260905131753 81 8 0.0 0.0 0.00 0.00 0.00 91 1016.8
20260905131248 80 9 0.0 0.0 0.00 0.00 0.00 89 1017.1
20260905130743 80 9 0.0 1.0 0.00 0.00 0.00 90 1017.0
20260905130242 79 9 0.0 0.0 0.00 0.00 0.00 92 1017.1
20260905125738 78 2 0.0 0.0 0.00 0.00 0.00 95 1017.1
20260905125233 77 350 0.0 0.0 0.00 0.00 0.00 96 1017.1
20260905124730 77 350 0.0 0.0 0.00 0.00 0.00 95 1016.8
20260905124225 78 350 0.0 0.0 0.00 0.00 0.00 95 1017.1
20260905123720 78 350 0.0 0.0 0.00 0.00 0.00 95 1016.8
20260905123218 78 350 0.0 0.0 0.00 0.00 0.00 94 1016.7
20260905122717 77 350 0.0 0.0 0.00 0.00 0.00 94 1016.7
20260905122217 77 350 0.0 0.0 0.00 0.00 0.00 94 1016.7
20260905121712 77 350 0.0 0.0 0.00 0.00 0.00 94 1016.7
20260905121208 77 351 0.0 0.0 0.00 0.00 0.00 95 1016.6
20260905120707 77 351 0.0 0.0 0.00 0.00 0.00 95 1016.6
20260905120201 77 351 0.0 0.0 0.00 0.00 0.00 95 1016.8
20260905115655 76 351 0.0 0.0 0.00 0.00 0.00 96 1016.6
20260905115150 76 351 0.0 0.0 0.00 0.00 0.00 96 1016.6
20260905114645 76 352 0.0 0.0 0.00 0.00 0.00 96 1016.6
20260905114143 76 352 0.0 0.0 0.00 0.00 0.00 96 1016.3
20260905113638 76 352 0.0 0.0 0.00 0.00 0.00 97 1016.2
20260905113133 76 352 0.0 0.0 0.00 0.00 0.00 97 1016.2
20260905112627 76 352 0.0 0.0 0.00 0.00 0.00 96 1016.0
20260905112124 77 352 0.0 0.0 0.00 0.00 0.00 97 1016.0
20260905111618 77 352 0.0 0.0 0.00 0.00 0.00 97 1015.9
20260905111117 77 352 0.0 0.0 0.00 0.00 0.00 97 1016.0
20260905110616 77 352 0.0 0.0 0.00 0.00 0.00 96 1015.8
20260905110111 77 352 0.0 0.0 0.00 0.00 0.00 96 1015.8
20260905105606 77 352 0.0 0.0 0.00 0.00 0.00 96 1015.9
20260905105105 77 352 0.0 0.0 0.00 0.00 0.00 96 1015.8
20260905104601 77 352 0.0 0.0 0.00 0.00 0.00 95 1015.5
20260905104101 77 352 0.0 0.0 0.00 0.00 0.00 95 1015.6
20260905103551 77 352 0.0 0.0 0.00 0.00 0.00 95 1015.5
20260905103047 77 352 0.0 0.0 0.00 0.00 0.00 95 1015.6